Station MBNN7 - Masonboro Island, NC (MSNB_N) Image indicating link to RSS feed of recent meteorological observations for station MBNN7


Conditions at MBNN7 as of
(3:00 am EDT)
0700 GMT on 06/15/2024:
     

Click on the graph icon in the table below to see a time series plot of the last five days of that observation.

5-day plot - Wind Direction Wind Direction (WDIR): SW ( 230 deg true )
5-day plot - Wind Speed Wind Speed (WSPD): 3 kts
5-day plot - Wind Gust Wind Gust (GST): 5 kts
5-day plot - Atmospheric Pressure Atmospheric Pressure (PRES):29.88 in
5-day plot - Pressure Tendency Pressure Tendency (PTDY):+0.00 in ( Steady )
5-day plot - Air Temperature Air Temperature (ATMP): 75.9 °F
5-day plot - Dew Point Dew Point (DEWP): 72.0 °F
5-day plot - Wind Speed at 10 Meters Wind Speed at 10 meters (WSPD10M): 4 kts
5-day plot - Wind Speed at 20 Meters Wind Speed at 20 meters (WSPD20M): 4 kts
5-day plot -  Wind Speed, Wind Gust and Atmospheric Pressure Combined plot of Wind Speed, Gust, and Air Pressure
Previous observations
TIME
(EDT)
5-day plot - Wind Direction
WDIR
 
5-day plot - Wind Speed
WSPD
kts
5-day plot - Wind Gust
GST
kts
5-day plot - Wave Height
WVHT
ft
5-day plot - Dominant Wave Period
DPD
sec
5-day plot - Average Wave Period
APD
sec
5-day plot - Mean Wave Direction
MWD
 
5-day plot - Atmospheric Pressure
PRES
in
5-day plot - Pressure Tendency
PTDY
in
5-day plot - Air Temperature
ATMP
°F
5-day plot - Water Temperature
WTMP
°F
5-day plot - Dew Point
DEWP
°F
5-day plot - Salinity
SAL
psu
5-day plot - Visibility
VIS
nmi
5-day plot - Tide (above MLLW)
TIDE
ft
2024-06-15 02:54 am SW 3 5----29.88- 75.9- 72.0---
2024-06-15 02:48 am SW 3 5----29.88- 76.1- 72.0---
2024-06-15 02:42 am SW 3 6----29.88- 76.1- 71.8---
2024-06-15 02:36 am SW 3 5----29.88- 76.3- 72.1---
2024-06-15 02:30 am SW 3 5----29.88- 76.3- 72.1---
2024-06-15 02:24 am SW 3 5----29.89- 76.3- 72.1---
2024-06-15 02:18 amWSW 3 5----29.89- 76.3- 72.1---
2024-06-15 02:12 am SW 3 5----29.89- 76.3- 72.0---
2024-06-15 02:06 am SW 3 5----29.89- 76.5- 71.8---
2024-06-15 02:00 am SW 4 6----29.89+0.01 76.6- 72.0---
2024-06-15 01:54 am SW 4 6----29.89- 76.6- 72.0---
2024-06-15 01:48 amWSW 3 6----29.89- 76.8- 72.3---
2024-06-15 01:42 amWSW 3 6----29.89- 76.8- 72.3---
2024-06-15 01:36 am SW 3 6----29.89- 76.6- 72.1---
2024-06-15 01:30 am SW 4 6----29.89- 76.6- 72.0---
2024-06-15 01:24 am SW 3 5----29.89- 76.8- 72.0---
2024-06-15 01:18 am SW 4 6----29.89- 76.8- 72.1---
2024-06-15 01:12 am SW 4 6----29.89- 76.6- 72.0---
2024-06-15 01:06 am SW 4 6----29.89- 76.6- 71.8---
2024-06-15 01:00 am SW 4 6----29.89+0.02 76.6- 71.6---
2024-06-15 12:54 am SW 4 5----29.89- 76.8- 71.6---
2024-06-15 12:48 am SW 3 6----29.89- 76.8- 71.8---
2024-06-15 12:42 am SW 3 5----29.89- 76.8- 71.8---
2024-06-15 12:36 amWSW 3 5----29.89- 76.8- 71.6---
2024-06-15 12:30 amWSW 4 6----29.90- 76.6- 72.0---
2024-06-15 12:24 amWSW 4 6----29.90- 76.8- 72.3---
2024-06-15 12:18 amWSW 3 5----29.90- 76.8- 72.7---
2024-06-15 12:12 amWSW 3 5----29.89- 76.5- 71.8---
2024-06-15 12:06 amWSW 4 5----29.89- 76.6- 71.8---
2024-06-15 12:00 am SW 4 5----29.89+0.04 77.0- 72.1---
2024-06-14 11:54 pm SW 3 6----29.89- 77.0- 72.5---
2024-06-14 11:48 pm SW 3 5----29.89- 76.8- 72.5---
2024-06-14 11:42 pm SW 3 4----29.89- 76.6- 72.1---
2024-06-14 11:36 pm SW 3 4----29.89- 76.3- 71.6---
2024-06-14 11:30 pm SW 3 5----29.88- 76.5- 71.6---
2024-06-14 11:24 pm SW 3 4----29.88- 76.3- 71.6---
2024-06-14 11:18 pm SW 3 5----29.88- 76.5- 71.4---
2024-06-14 11:12 pm SW 3 5----29.88- 76.5- 71.4---
2024-06-14 11:06 pm SW 3 4----29.88- 76.6- 71.6---
2024-06-14 11:00 pm SW 3 5----29.88+0.05 76.8- 71.8---
2024-06-14 10:54 pm SW 3 6----29.88- 76.8- 71.8---
2024-06-14 10:48 pm SW 3 5----29.88- 76.6- 71.6---
2024-06-14 10:42 pm SW 3 5----29.88- 76.6- 71.6---
2024-06-14 10:36 pmWSW 3 5----29.88- 76.6- 71.6---
2024-06-14 10:30 pmWSW 3 5----29.87- 76.6- 71.6---
2024-06-14 10:24 pm SW 3 6----29.87- 77.0- 71.4---
2024-06-14 10:18 pm SW 4 6----29.87- 77.2- 71.8---
2024-06-14 10:12 pmWSW 4 6----29.87- 77.2- 72.1---
2024-06-14 10:06 pmWSW 4 5----29.87- 77.4- 72.0---
2024-06-14 10:00 pm SW 4 6----29.87+0.04 77.5- 72.1---
2024-06-14 09:54 pm SW 4 6----29.87- 77.9- 72.1---
2024-06-14 09:48 pm SW 4 7----29.87- 77.9- 72.1---
2024-06-14 09:42 pm SW 5 8----29.87- 78.3- 72.9---
2024-06-14 09:36 pmSSW 5 9----29.86- 79.0- 73.8---
2024-06-14 09:30 pmSSW 5 9----29.86- 79.0- 73.6---
2024-06-14 09:24 pmSSW 5 10----29.86- 79.0- 73.4---
2024-06-14 09:18 pmSSW 5 9----29.85- 78.8- 73.2---
2024-06-14 09:12 pmSSW 4 9----29.85- 79.0- 73.6---
2024-06-14 09:06 pmSSW 4 9----29.85- 79.2- 73.8---
2024-06-14 09:00 pmSSW 4 9----29.85+0.01 79.2- 73.6---
2024-06-14 08:54 pmSSW 4 9----29.85- 79.2- 73.2---
2024-06-14 08:48 pmSSW 4 10----29.84- 79.2- 73.0---
2024-06-14 08:42 pmSSW 4 10----29.84- 79.3- 73.0---
2024-06-14 08:36 pmSSW 4 9----29.84- 79.3- 73.2---
2024-06-14 08:30 pmSSW 4 8----29.84- 79.7- 73.0---
2024-06-14 08:24 pmSSW 4 9----29.84- 79.7- 73.0---
2024-06-14 08:18 pmSSW 4 11----29.83- 79.9- 72.9---
2024-06-14 08:12 pmSSW 4 9----29.83- 80.2- 72.9---
2024-06-14 08:06 pmSSW 5 9----29.83- 80.1- 72.3---
2024-06-14 08:00 pmSSW 5 10----29.83-0.01 79.9- 71.8---
2024-06-14 07:54 pmSSW 6 10----29.83- 80.1- 72.1---
2024-06-14 07:48 pm S 7 11----29.83- 80.1- 72.1---
2024-06-14 07:42 pmSSW 6 11----29.83- 80.4- 72.5---
2024-06-14 07:36 pmSSW 6 10----29.83- 80.6- 72.1---
2024-06-14 07:30 pm S 7 11----29.83- 80.6- 71.8---
2024-06-14 07:24 pmSSW 6 10----29.83- 80.8- 72.5---
2024-06-14 07:18 pmSSW 5 9----29.83- 81.1- 73.0---
2024-06-14 07:12 pmSSW 5 10----29.83- 81.3- 73.0---
2024-06-14 07:06 pmSSW 4 9----29.83- 81.5- 73.4---
2024-06-14 07:00 pmSSW 4 9----29.83-0.02 81.9- 73.8---
2024-06-14 06:54 pmSSW 5 9----29.83- 82.0- 73.8---
2024-06-14 06:48 pmSSW 5 10----29.83- 82.0- 73.8---
2024-06-14 06:42 pmSSW 5 10----29.84- 82.4- 74.3---
2024-06-14 06:36 pmSSW 4 8----29.84- 82.8- 74.5---
2024-06-14 06:30 pmSSW 4 8----29.84- 82.4- 74.3---
2024-06-14 06:24 pmSSW 4 9----29.84- 82.4- 74.7---
2024-06-14 06:18 pmSSW 5 10----29.84- 82.2- 74.7---
2024-06-14 06:12 pmSSE 5 7----29.84- 81.9- 74.1---
2024-06-14 06:06 pmSSE 5 7----29.83- 81.9- 73.9---
2024-06-14 06:00 pmSSE 5 7----29.83-0.03 81.7- 73.6---
2024-06-14 05:54 pm S 6 7----29.83- 81.5- 73.0---
2024-06-14 05:48 pm S 6 8----29.83- 81.1- 73.0---
2024-06-14 05:42 pm S 6 8----29.83- 81.5- 73.4---
2024-06-14 05:36 pm S 7 8----29.83- 81.5- 73.2---
2024-06-14 05:30 pmSSE 6 9----29.83- 81.9- 73.2---
2024-06-14 05:24 pmSSE 6 8----29.83- 81.9- 73.6---
2024-06-14 05:18 pm S 6 8----29.83- 81.5- 72.9---
2024-06-14 05:12 pm S 7 8----29.83- 81.3- 72.7---
2024-06-14 05:06 pm S 7 9----29.83- 81.5- 72.9---
2024-06-14 05:00 pm S 7 8----29.84-0.05 81.9- 72.5---
2024-06-14 04:54 pmSSE 6 8----29.84- 82.4- 73.0---
2024-06-14 04:48 pm S 6 8----29.84- 82.2- 73.0---
2024-06-14 04:42 pm S 6 7----29.84- 82.2- 72.9---
2024-06-14 04:36 pm S 6 7----29.85- 82.8- 72.9---
2024-06-14 04:30 pm S 5 7----29.85- 83.5- 73.2---
2024-06-14 04:24 pm S 4 6----29.85- 83.3- 73.0---
2024-06-14 04:18 pm S 5 6----29.85- 82.8- 73.0---
2024-06-14 04:12 pmSSE 5 7----29.85- 83.1- 72.9---
2024-06-14 04:06 pmSSE 5 7----29.85- 83.1- 72.9---
2024-06-14 04:00 pmSSE 4 6----29.85-0.04 83.3- 73.6---
2024-06-14 03:54 pmSSE 4 7----29.85- 83.1- 73.2---
2024-06-14 03:48 pmSSE 4 7----29.85- 83.3- 73.2---
2024-06-14 03:42 pmSSE 5 8----29.85- 83.1- 72.9---
2024-06-14 03:36 pmSSE 5 8----29.85- 82.9- 73.0---
2024-06-14 03:30 pmSSE 5 8----29.86- 83.1- 72.7---
2024-06-14 03:24 pmSSE 4 7----29.86- 82.9- 72.9---
2024-06-14 03:18 pmSSE 5 7----29.86- 82.8- 72.7---
2024-06-14 03:12 pmSSE 4 7----29.86- 83.1- 73.2---
2024-06-14 03:06 pmSSE 5 8----29.86- 82.6- 73.0---
2024-06-14 03:00 pmSSE 5 8----29.86-0.04 82.4- 73.2---
2024-06-14 02:54 pmSSE 6 10----29.86- 82.0- 73.0---
2024-06-14 02:48 pmSSE 7 9----29.86- 81.9- 72.7---
2024-06-14 02:42 pm SE 6 9----29.86- 82.6- 72.9---
2024-06-14 02:36 pm SE 6 9----29.86- 82.0- 73.0---
2024-06-14 02:30 pm SE 6 9----29.87- 82.6- 73.2---
2024-06-14 02:24 pm SE 5 9----29.87- 82.9- 73.2---
2024-06-14 02:18 pm SE 4 9----29.88- 84.0- 73.6---
2024-06-14 02:12 pm SE 4 9----29.88- 84.2- 73.8---
2024-06-14 02:06 pm SE 4 9----29.88- 84.2- 73.6---
2024-06-14 02:00 pm SE 4 8----29.89-0.02 84.6- 73.6---
2024-06-14 01:54 pm SE 3 8----29.89- 84.4- 73.2---
2024-06-14 01:48 pm SE 4 8----29.88- 84.0- 73.2---
2024-06-14 01:42 pm SE 4 9----29.88- 83.7- 73.2---
2024-06-14 01:36 pm SE 4 9----29.88- 83.8- 73.4---
2024-06-14 01:30 pm SE 4 9----29.88- 83.7- 73.2---
2024-06-14 01:24 pmESE 4 9----29.88- 83.7- 73.0---
2024-06-14 01:18 pm SE 4 10----29.89- 83.7- 73.0---
2024-06-14 01:12 pmESE 5 9----29.89- 83.1- 72.5---
2024-06-14 01:06 pmESE 5 9----29.89- 83.3- 73.0---
2024-06-14 01:00 pmESE 4 9----29.89-0.02 83.1- 73.2---
2024-06-14 12:54 pmESE 5 9----29.89- 82.9- 72.9---
2024-06-14 12:48 pmESE 5 9----29.89- 82.8- 73.0---
2024-06-14 12:42 pmESE 5 10----29.89- 82.6- 72.9---
2024-06-14 12:36 pmESE 4 8----29.89- 82.8- 73.4---
2024-06-14 12:30 pmESE 5 9----29.89- 82.0- 73.2---
2024-06-14 12:24 pm E 6 9----29.89- 81.9- 72.9---
2024-06-14 12:18 pm E 6 10----29.89- 82.0- 73.2---
2024-06-14 12:12 pmESE 6 9----29.89- 81.9- 73.0---
2024-06-14 12:06 pmESE 5 9----29.90- 81.9- 73.2---
2024-06-14 12:00 pm E 5 8----29.90-0.03 82.0- 73.6---
2024-06-14 11:54 am E 6 9----29.90- 82.4- 73.4---
2024-06-14 11:48 am E 5 8----29.90- 82.6- 72.5---
2024-06-14 11:42 am E 5 8----29.91- 82.6- 72.0---
2024-06-14 11:36 am E 6 8----29.91- 82.6- 71.8---
2024-06-14 11:30 am E 5 7----29.91- 82.9- 72.5---
2024-06-14 11:24 am E 4 8----29.91- 82.9- 72.7---
2024-06-14 11:18 am E 5 8----29.91- 82.4- 72.1---
2024-06-14 11:12 am E 4 8----29.91- 82.2- 73.0---
2024-06-14 11:06 am E 6 9----29.91- 81.5- 72.5---
2024-06-14 11:00 am E 5 8----29.91-0.02 81.3- 72.7---
2024-06-14 10:54 am E 6 10----29.90- 81.3- 72.9---
2024-06-14 10:48 am E 5 9----29.91- 81.5- 72.7---
2024-06-14 10:42 am E 5 8----29.91- 81.7- 72.9---
2024-06-14 10:36 am E 5 8----29.92- 82.2- 73.0---
2024-06-14 10:30 am NE 4 8----29.92- 82.0- 69.1---
2024-06-14 10:24 amENE 5 8----29.91- 80.6- 72.3---
2024-06-14 10:18 am E 5 8----29.91- 80.6- 72.7---
2024-06-14 10:12 am E 6 10----29.91- 80.4- 72.5---
2024-06-14 10:06 am E 6 9----29.91- 80.4- 72.1---
2024-06-14 10:00 amENE 6 9----29.91-0.01 80.1- 72.0---
2024-06-14 09:54 amENE 6 9----29.91- 80.1- 72.0---
2024-06-14 09:48 amENE 7 10----29.92- 80.2- 71.8---
2024-06-14 09:42 amENE 5 9----29.92- 80.4- 72.0---
2024-06-14 09:36 amENE 5 9----29.92- 80.1- 71.6---
2024-06-14 09:30 amENE 6 11----29.92- 79.7- 71.2---
2024-06-14 09:24 am NE 7 11----29.92- 79.9- 70.5---
2024-06-14 09:18 am NE 7 11----29.93- 79.5- 70.2---
2024-06-14 09:12 am NE 7 11----29.93- 79.2- 70.7---
2024-06-14 09:06 am NE 6 10----29.93- 79.0- 70.5---
2024-06-14 09:00 am NE 7 11----29.93+0.03 78.8- 70.2---
2024-06-14 08:54 am NE 7 11----29.93- 79.0- 70.0---
2024-06-14 08:48 am NE 7 12----29.93- 78.8- 70.0---
2024-06-14 08:42 am NE 7 12----29.93- 79.0- 70.0---
2024-06-14 08:36 am NE 6 9----29.93- 78.6- 70.0---
2024-06-14 08:30 amNNE 7 10----29.93- 77.5- 69.4---
2024-06-14 08:24 am NE 7 10----29.93- 77.2- 69.4---
2024-06-14 08:18 amNNE 6 11----29.93- 76.8- 69.4---
2024-06-14 08:12 amNNE 7 12----29.93- 76.5- 69.3---
2024-06-14 08:06 amNNE 6 10----29.93- 76.3- 69.3---
2024-06-14 08:00 amNNE 7 10----29.93+0.05 75.7- 69.1---
2024-06-14 07:54 amNNE 7 10----29.93- 75.4- 68.7---
2024-06-14 07:48 amNNE 6 10----29.93- 75.2- 68.7---
2024-06-14 07:42 amNNE 7 10----29.93- 74.8- 68.7---
2024-06-14 07:36 amNNE 5 10----29.93- 74.1- 68.5---
2024-06-14 07:30 amNNE 5 8----29.93- 73.6- 68.4---
2024-06-14 07:24 amNNE 5 8----29.93- 73.0- 68.0---
2024-06-14 07:18 amNNE 5 8----29.93- 72.5- 67.8---
2024-06-14 07:12 amNNE 5 8----29.93- 72.1- 67.5---
2024-06-14 07:06 amNNE 5 9----29.93- 71.6- 67.3---
2024-06-14 07:00 amNNE 5 8----29.92+0.04 71.2- 67.1---
2024-06-14 06:54 amNNE 4 7----29.92- 70.7- 66.9---
2024-06-14 06:48 am N 4 8----29.92- 70.5- 66.7---
2024-06-14 06:42 am N 5 7----29.92- 70.5- 67.1---
2024-06-14 06:36 am N 5 9----29.91- 70.3- 66.9---
2024-06-14 06:30 am N 5 8----29.91- 70.2- 66.9---
2024-06-14 06:24 amNNE 4 7----29.90- 70.2- 67.1---
2024-06-14 06:18 am N 5 8----29.90- 70.0- 67.1---
2024-06-14 06:12 am N 5 9----29.90- 70.0- 66.9---
2024-06-14 06:06 am N 5 9----29.90- 70.0- 67.1---
2024-06-14 06:00 am N 5 8----29.90+0.01 70.2- 67.1---
2024-06-14 05:54 am N 5 7----29.90- 70.2- 67.1---
2024-06-14 05:48 am N 5 8----29.90- 70.3- 67.3---
2024-06-14 05:42 am N 5 8----29.89- 70.5- 67.5---
2024-06-14 05:36 am N 5 7----29.89- 70.5- 67.5---
2024-06-14 05:30 am N 4 7----29.89- 70.3- 67.5---
2024-06-14 05:24 am N 4 7----29.89- 70.3- 67.3---
2024-06-14 05:18 am N 5 8----29.89- 70.3- 67.5---
2024-06-14 05:12 am N 5 8----29.88- 70.3- 67.5---
2024-06-14 05:06 am N 5 8----29.88- 70.3- 67.3---
2024-06-14 05:00 am N 5 8----29.88-0.02 70.3- 67.3---
2024-06-14 04:54 am N 5 8----29.88- 70.3- 67.3---
2024-06-14 04:48 am N 5 8----29.88- 70.5- 67.5---
2024-06-14 04:42 am N 5 9----29.88- 70.7- 67.6---
2024-06-14 04:36 am N 5 7----29.88- 71.1- 67.8---
2024-06-14 04:30 am N 4 7----29.88- 71.4- 68.0---
2024-06-14 04:24 am N 4 7----29.88- 71.8- 68.2---
2024-06-14 04:18 am N 5 7----29.88- 72.3- 68.5---
2024-06-14 04:12 am N 4 7----29.88- 73.0- 69.1---
2024-06-14 04:06 am N 4 6----29.88- 73.6- 69.1---
2024-06-14 04:00 am N 4 6----29.88-0.04 74.5- 69.6---
2024-06-14 03:54 amNNE 5 10----29.88- 76.1- 70.7---
2024-06-14 03:48 amENE 7 10----29.88- 77.2- 71.8---
2024-06-14 03:42 amENE 6 10----29.89- 77.2- 71.8---
2024-06-14 03:36 amENE 7 12----29.89- 77.2- 71.8---
2024-06-14 03:30 amENE 6 12----29.89- 77.4- 71.8---
2024-06-14 03:24 amENE 7 11----29.89- 77.5- 71.8---
2024-06-14 03:18 amENE 8 12----29.88- 77.5- 71.6---
2024-06-14 03:12 amENE 7 13----29.89- 77.5- 71.6---
2024-06-14 03:06 amENE 7 12----29.89- 77.5- 71.6---
2024-06-14 03:00 amENE 8 12----29.89-0.04 77.5- 71.4---
2024-06-14 02:54 am E 7 13----29.89- 77.7- 71.8---